Location: Home
(42.5358°N, 72.7383°W)
Time: 04:23:08
(UTC-04:00)

Vanguard 1 - Pass Details

Date: 03 June 2022
Orbit: 649 x 3832 km, 34.2° (Epoch: 24 June)

Event Time Altitude Azimuth Distance (km) Brightness Sun altitude
Rises 03:31:28 0° 269° (W) 5,390 13.5 -15.1°
Reaches altitude 10° 03:34:26 10° 266° (W) 4,728 13.1 -14.8°
Maximum altitude 03:48:48 61° 191° (S) 3,451 12.5 -13.1°
Drops below altitude 10° 04:11:04 10° 119° (ESE) 6,933 14.6 -10.2°
Sets 04:16:37 0° 116° (ESE) 7,937 15.0 -9.4°
